Location: El Encino
(32.4743°N, 116.8403°W)
Time: 13:41:31
(UTC+00:00)

Daily predictions for brighter satellites

Satellite Brightness Start Highest point End
(mag) Time Altitude Azimuth Time Altitude Azimuth Time Altitude Azimuth
H-2A R/B 2.2 12:01:25 19° S 12:02:28 26° SSE 12:07:09 10° E
IDEFIX/ARIANE 42P 4.5 12:01:56 10° NW 12:03:43 12° WNW 12:04:30 11° WNW
SL-08 R/B 4.3 12:02:14 20° SW 12:04:22 27° W 12:08:28 10° NW
Cosmos 2369 Rocket 3.4 12:03:22 19° W 12:05:41 25° WNW 12:10:13 10° N
Cosmos 1125 Rocket 4.3 12:06:11 20° WSW 12:09:03 33° WNW 12:13:48 10° N
SL-27 R/B 3.8 12:06:51 10° N 12:09:59 40° ENE 12:13:06 10° SE
IUS-18 SRM-1 3.7 12:09:48 20° WSW 12:12:22 56° SSE 12:25:43 10° E
Okean 1 Rocket 3.2 12:09:02 10° NNW 12:13:23 53° W 12:17:40 10° S
Cosmos 1674 3.7 12:11:03 10° SSE 12:14:41 49° E 12:18:22 10° NNE
ISS -1.0 12:13:04 10° SSE 12:15:03 15° SE 12:17:03 10° E
Centaur D AC-25 3.7 12:14:22 14° W 12:18:16 24° SW 12:21:23 10° SSE
In-Cosmos 22 4.2 12:15:03 10° S 12:20:48 83° W 12:26:35 10° N
Cosmos 1470 2.9 12:19:34 10° NNW 12:23:17 47° W 12:27:00 10° SSW
SL-4 R/B 2.9 12:19:21 10° WNW 12:23:42 35° SW 12:27:54 10° SSE
Cosmos 1707 3.6 12:26:01 10° SW 12:29:26 30° W 12:32:53 10° NNW
Cosmos 1626 3.5 12:31:31 10° SSE 12:35:02 42° E 12:38:32 10° NNE
ASTRO E2 2.8 12:31:34 10° W 12:35:28 60° S 12:39:21 10° ESE
DELTA 2 R/B (1) 3.9 12:30:09 10° WNW 12:35:42 70° NNE 12:41:16 10° ESE
Meteor 2-11 Rocket 4.4 12:31:02 10° N 12:37:11 75° W 12:43:17 10° S
FENGYUN 3A 4.2 12:33:42 10° N 12:38:39 38° WNW 12:43:34 10° SW
RESURS DK-1 4.1 12:36:08 10° N 12:40:02 38° ENE 12:43:55 10° SE
Cosmos 1400 Rocket 3.7 12:37:00 10° NNW 12:40:35 29° W 12:44:11 10° SSW
Cosmos 1726 2.9 12:37:47 10° NNW 12:41:07 31° W 12:44:25 10° SSW
Cosmos 1725 Rocket 4.0 12:36:24 10° N 12:42:43 84° W 12:48:58 10° S
KORONAS-FOTON 3.9 12:41:19 10° SSW 12:45:05 58° W 12:48:54 10° N
Iridium 2 3.6 12:42:59 10° S 12:46:44 86° W 12:50:30 10° N
Cosmos 1802 Rocket 4.2 12:43:59 10° NNW 12:49:56 49° W 12:55:47 10° SSW
COSMO-SKYMED 1 3.9 12:45:48 10° SSE 12:49:56 46° ENE 12:54:06 10° N
